Location: Haliburton Scout Reserve
(45.0900°N, 78.3200°W)
Time: 18:15:00
(UTC-04:00)

Courier 1B Rocket - Pass Details

Date: 12 February 2023
Orbit: 920 x 1202 km, 28.2° (Epoch: 22 March)

Event Time Altitude Azimuth Distance (km) Brightness Sun altitude
Rises 16:10:02 0° 246° (WSW) 3,741 9.9 12.8°
Reaches altitude 10° 16:14:02 10° 224° (SW) 2,731 9.6 12.2°
Maximum altitude 16:17:31 15° 192° (SSW) 2,343 7.8 11.7°
Drops below altitude 10° 16:20:55 10° 159° (SSE) 2,648 7.5 11.2°
Sets 16:24:43 0° 137° (SE) 3,561 7.8 10.6°
